Weather in Kirovo

Russia / Sakha (Yakutia) Republic     64°32′42″N   122°14′31″E
temp.,
°C
wind,
m/s
gust,
m/s
humid.,
%
clouds,
%
prec.,
mm/h
press.,
hPa
HPBL,
m
15 may, sat
sat1500:00+8sse224949 0.0 100722
03:00+6s255826 0.0 100766
06:00+7s265295 0.0 1006159
09:00+12ssw353775 0.0 1004431
12:00+16ssw462640 0.0 10022718
15:00+17ssw4622100 0.0 10002952
18:00+17s462281 0.0 9992970
21:00+14sse383338 0.0 999196
16 may, sun
sun1600:00+10sse51244100 0.0 998303
03:00+9se4115599 0.0 996258
06:00+9se3952100 0.0 995296
09:00+12sse464398 0.0 994685
12:00+16s61134100 0.0 9932706
15:00+13wsw6854100 0.1 9921275
18:00+9wsw3464100 0.6 994888
21:00+8e1169100 0.7 99425
17 may, mon
mon1700:00+7ese258490 0.3 993142
03:00+5sw4690100 0.6 992392
06:00+4wsw4884100 0.8 993631
09:00+5sw4555100 0.8 994848
12:00+6ssw3443100 0.0 9941297
15:00+8ssw3436100 0.0 9941699
18:00+6sw4447100 0.0 9961202
21:00+4wsw3549100 0.0 997876
18 may, tue
tue1800:00+2wsw376099 0.0 997467
03:000wsw3672100 0.0 997312
06:000wsw3571100 0.0 997415
09:00+1wsw4461100 0.0 997831
12:00+3wsw3453100 0.0 9981236
15:00+3wsw3457100 0.1 9981249
18:00+3sw3458100 0.1 9991139
21:00+2ssw3472100 0.1 999654
19 may, wed
wed1900:000sw5997100 1.2 999565
03:00−1sw3793100 1.5 999363
06:000ssw3677100 0.0 1000366
09:00+2ssw3452100 0.0 10011307
12:00+5ssw3435100 0.0 10012213
15:00+6s3434100 0.0 10022097
18:00+5s343886 0.0 10031766
21:00+3s11507 0.1 100417